Flag for Canada Weather past 2 weeks in Regina, Saskatchewan, Canada

Now
72 °F

Overcast.


Feels Like: 77 °F
Forecast: 60 / 78 °F
Wind: 8 mph from East

Location: Regina Weather Station

Current Time: Jul 22, 2014 at 8:28:21 PM

Latest Report: Jul 22, 2014 at 8:00 PM


Visibility: 15 mi

Pressure: 30.24 "Hg

Humidity: 53%

Dew point: 54 °F

Location of ReginaLocation

Historic Weather in Regina — Graph

°F

Regina temperature yesterday

Maximum temperature yesterday: 70 °F (at 6:00 PM)
Minimum temperature yesterday: 55 °F (at 3:00 AM)
Average temperature yesterday: 63 °F

Past Weeks' High & Low Weather Summary

 TemperatureHumidityPressure
High84 °F (Jul 19, 4:00 PM)100% (Jul 8, 2:00 AM)30.42 "Hg (Jul 8, 2:00 AM)
Low43 °F (Jul 13, 5:00 AM)36% (Jul 15, 3:00 PM)29.52 "Hg (Jul 18, 4:00 AM)
Average65 °F71%29.96 "Hg
* Reported Jul 7 7:00 PM — Jul 22 7:00 PM, Regina, Weather by CustomWeather, © 2014

Note: Actual official high and low records may vary slightly from our data, if they occured in-between our weather recording intervals... More about our weather records

Advertising

Regina weather history for previous 24 hours

 ConditionsComfort  
Time TempWeatherWind HumidityBarometerVisibility
7:00 PM
Jul 22
75 °FPartly sunny.8 mph44%30.25 "Hg15 mi
6:00 PM75 °FPartly sunny.7 mph44%30.25 "Hg15 mi
5:00 PM75 °FPartly sunny.3 mph41%30.24 "Hg15 mi
11:00 AM73 °FSunny.2 mph50%30.22 "Hg15 mi
10:00 AM72 °FPassing clouds.2 mph53%30.22 "Hg15 mi
9:00 AM70 °FPassing clouds.6 mph57%30.20 "Hg15 mi
8:00 AM66 °FSunny.3 mph64%30.19 "Hg15 mi
7:00 AM61 °FSunny.2 mph88%30.18 "Hg15 mi
6:00 AM54 °FSunny.5 mph100%30.16 "Hg12 mi
5:00 AM55 °FLight fog.3 mph100%30.15 "Hg15 mi
4:00 AM55 °FPassing clouds.7 mph94%30.13 "Hg15 mi
3:00 AM59 °FPassing clouds.2 mph100%30.11 "Hg15 mi
2:00 AM61 °FPassing clouds.No wind94%30.10 "Hg15 mi
1:00 AM61 °FMostly cloudy.2 mph94%30.09 "Hg15 mi
12:00 AM59 °FMostly cloudy.5 mph94%30.06 "Hg15 mi
11:00 PM
Jul 21
63 °FPassing clouds.5 mph88%30.02 "Hg15 mi
10:00 PM64 °FPassing clouds.3 mph78%30.01 "Hg15 mi
9:00 PM66 °FPartly cloudy.3 mph73%29.99 "Hg15 mi
8:00 PM68 °FPartly sunny.2 mph60%29.98 "Hg15 mi
Weather by CustomWeather, © 2014

See weather overviewHow to use our weather pages